Regional Weather Roundup
Issued by NWS Green Bay, WI

Home | Current Version | Previous Version | Text Only | Print | Product List | Glossary On
Versions: 1 2 3 4 5 6 7 8 9 10 11 12 13 14 15 16 17 18 19 20 21 22 23 24 25 26 27 28 29 30 31 32 33 34 35 36 37 38 39 40 41 42 43 44 45 46 47 48 49 50
000
ASUS43 KGRB 230211
RWRGRB

NORTH-CENTRAL AND NORTHEAST WISCONSIN REGIONAL WEATHER ROUNDUP
NATIONAL WEATHER SERVICE GREEN BAY WI
900 PM CDT TUE MAY 22 2018

WIZ005-009-010>012-018-019-230300-
NORTH CENTRAL WISCONSIN

CITY           SKY/WX    TMP DP  RH WIND       PRES   REMARKS
IRONWOOD       FAIR      61  53  75 CALM      30.04R
MANITOWISH WTR FAIR      63  53  69 CALM      30.05R
ARBOR VITAE    CLOUDY    70  56  61 CALM      30.05R
EAGLE RIVER    FAIR      67  49  50 CALM      30.05R
LAND O LAKES   FAIR      59  43  54 CALM      30.07R
RHINELANDER    MOCLDY    67  56  67 W5        30.05R
PHILLIPS       MOCLDY    64  56  74 CALM      30.05R
ANTIGO         FAIR      63  56  79 W8        30.06R
TOMAHAWK       MOCLDY    64  55  72 CALM      30.05S
MERRILL        FAIR      66  58  75 SW5       30.06R
$$

WIZ013-073-230300-
NORTHEAST WISCONSIN

CITY           SKY/WX    TMP DP  RH WIND       PRES   REMARKS
IRON MOUNTAIN  FAIR      69  48  47 NE5       30.00R
MARINETTE      FAIR      65  46  50 SW9       30.01R
OCONTO         FAIR      65  56  73 S3        30.01R
$$

WIZ017-030-035>037-045-230300-
CENTRAL WISCONSIN

CITY           SKY/WX    TMP DP  RH WIND       PRES   REMARKS
MEDFORD        FAIR      64  55  75 SW3       30.06S
WAUSAU         FAIR      65  57  75 W6        30.04R
MOSINEE        CLEAR     63  57  82 W6        30.07R
MARSHFIELD     FAIR      61  57  87 W7        30.06S
WISC RAPIDS    FAIR      62  57  83 SW5       30.08R
STEVENS POINT  FAIR      64  56  75 W3        30.06S
WAUPACA        FAIR      67  58  72 W5        30.05R
SHAWANO        FAIR      70  57  63 SW6       30.02R
CLINTONVILLE   FAIR      68  55  64 W5        30.04R
WAUTOMA        FAIR      64  58  80 W6        30.06R
$$

WIZ038-039-048-051-230300-
FOX VALLEY

CITY           SKY/WX    TMP DP  RH WIND       PRES   REMARKS
NWS GREEN BAY  FAIR      66  59  78 S6        30.03R
APPLETON       PTCLDY    66  54  63 SW7       30.03R
OSHKOSH        FAIR      66  58  75 CALM      30.04S
FOND DU LAC    FAIR      61  57  87 SW5       30.05R
$$

WIZ022-050-052-230300-
EAST CENTRAL WISCONSIN

CITY           SKY/WX    TMP DP  RH WIND       PRES   REMARKS
EPHRAIM        FAIR      57  51  80 SE5       30.01R
WASHINGTON ISL MOCLDY    51  48  90 CALM      30.02R
STURGEON BAY   FAIR      60  52  74 S6        30.03R
MANITOWOC      FAIR      50  47  89 CALM      30.05R
SHEBOYGAN      LGT RAIN  57  54  89 S3        30.05R
$$

LMZ563-521-522-541>543-230300-
LAKESHORE

STATION/POSITION TIME  TEMP    WIND        PRES    VSBY  WAVE
                       AIR SEA DIR/SP/G                  HT/PER
                 (UTC) (F)     (DEG/KT/KT) (MB)    (MI)  (FT/S)
SHEBOYGAN LKSHOR 0200   57     200/  5/  5 1017.7R
KEWAUNEE LKSHORE 0148   52     180/  5/  7 1016.5R
NORTHPORT PIER   0140   54     150/  2/  3 1016.6R
N MID LAKE BUOY  0150   41 37  210/  8/  8 1016.7R         0
SISTER BAY LKSHO 0157   61     140/ 10/ 11   N/A
MENOMINEE LKSHOR 0148   66     180/  9/ 13 1015.7R
$$




USA.gov is the U.S. government's official web portal to all federal, state and local government web resources and services.